Regional Weather Roundup
Issued by NWS Albany, NY

Home | Current Version | Previous Version | Graphics & Text | Print | Product List | Glossary Off
Versions: 1 2 3 4 5 6 7 8 9 10 11 12 13 14 15 16 17 18 19 20 21 22 23 24 25 26 27 28 29 30 31 32 33 34 35 36 37 38 39 40 41 42 43 44 45 46 47 48 49 50

000
ASUS41 KALY 311710
RWRALY

NEW YORK STATE HOURLY WEATHER ROUNDUP
NATIONAL WEATHER SERVICE ALBANY NY
100 PM EDT MON AUG 31 2015

NOTE: "FAIR" INDICATES FEW OR NO CLOUDS BELOW 12,000 FEET WITH NO
SIGNIFICANT WEATHER AND/OR NO OBSTRUCTIONS TO VISIBILITY.

NYZ032-033-038>043-046>054-057>066-NYZ062>081-311800-
EAST


CITY           SKY/WX    TMP DP  RH WIND       PRES   REMARKS
ALBANY         MOSUNNY   85  66  53 W10       29.98F
GLENS FALLS    MOSUNNY   84  64  50 W6        29.94F
POUGHKEEPSIE   PTSUNNY   84  69  60 SW9       30.00F
NEWBURGH       PTSUNNY   79  72  78 W5        30.05S
MONTGOMERY     MOSUNNY   84  70  62 W8        30.02F
WHITE PLAINS   MOSUNNY   87  65  47 W10       30.02F
ISLIP          CLOUDY    87  64  46 W9        30.00F
NEW YORK CITY  PTSUNNY   85  65  51 SW9       30.01F
CENTRAL PARK   PTSUNNY   85  67  54 VRB6      30.05F
$$

NYZ005>009-017-018-044>046-055-056-311800-
CENTRAL


CITY           SKY/WX    TMP DP  RH WIND       PRES   REMARKS
FULTON         MOSUNNY   79  68  69 W10       30.02F
SYRACUSE       PTSUNNY   82  68  62 W14       30.01F
ROME           PTSUNNY   79  68  69 W8        30.02F
ELMIRA         MOSUNNY   85  67  54 W10       30.04F
BINGHAMTON     CLOUDY    77  66  68 NW8       30.08F
MONTICELLO     PTSUNNY   81  68  65 MISG      30.08F
$$

NYZ026>034-041>043-311800-
NORTH


CITY           SKY/WX    TMP DP  RH WIND       PRES   REMARKS
WATERTOWN      SUNNY     78  66  66 W13       29.99F HAZE
FORT DRUM      NOT AVBL
MASSENA        PTSUNNY   76  64  66 W12       29.96F
SARANAC LAKE   PTSUNNY   75  59  57 W9G21     29.99F
PLATTSBURGH    PTSUNNY   81  61  50 W8G18     29.92S
$$

NYZ001>004-010>016-019>021-311800-
WEST


CITY           SKY/WX    TMP DP  RH WIND       PRES   REMARKS
NIAGARA FALLS  PTSUNNY   80  66  62 W12       30.03F
BUFFALO        MOSUNNY   78  69  73 SW15      30.05F
DUNKIRK        MOSUNNY   78  70  76 W9        30.08S
JAMESTOWN      PTSUNNY   79  64  61 W12G18    30.12F
WELLSVILLE     PTSUNNY   80  63  55 NW9       30.14F
ROCHESTER      PTSUNNY   81  67  62 NW9       30.03F
PENN YAN       PTSUNNY   82  67  60 W8        30.06F
$$

             KEY
       WCI = WIND CHILL INDEX
       VSB = VISIBILITY
       HX  = HEAT INDEX
$$


USA.gov is the U.S. government's official web portal to all federal, state and local government web resources and services.